VPCOH LFMN-LYTV

Flight info

Callsign VPCOH
Flight time N/A
Altitude 41000
Route SODRI A3 MIRSA DCT ROSKI/N0456F400 DCT NAVAG DCT RIVAM/N0460F390 DCT KOFER
Aircraft B738/M-SDE2E3FGHIRWXY/LB1

Departure

Time N/A
Airport Nice-Côte d'Azur Airport (LFMN)

Arrival

Time 2026-05-01 14:39
Airport Tivat Airport (LYTV)
Time Latitude Longitude Altitude Speed Heading
2026-05-01 14:17 42.19037 16.99008 36532 ft 474 kts 98°
2026-05-01 14:17 42.18385 17.03365 35840 ft 474 kts 99°
2026-05-01 14:17 42.17739 17.07677 35100 ft 475 kts 98°
2026-05-01 14:18 42.17081 17.12051 34315 ft 477 kts 98°
2026-05-01 14:18 42.16419 17.16447 33390 ft 478 kts 98°
2026-05-01 14:18 42.15757 17.20824 32512 ft 476 kts 98°
2026-05-01 14:18 42.15316 17.23730 31941 ft 474 kts 98°
2026-05-01 14:19 42.14444 17.29461 30882 ft 467 kts 98°
2026-05-01 14:19 42.13789 17.33751 29924 ft 465 kts 98°
2026-05-01 14:19 42.13143 17.37976 29253 ft 454 kts 99°
2026-05-01 14:19 42.12506 17.42122 28491 ft 448 kts 99°
2026-05-01 14:20 42.11880 17.46195 27829 ft 440 kts 99°
2026-05-01 14:20 42.10662 17.54093 26557 ft 426 kts 99°
2026-05-01 14:20 42.10061 17.57975 25924 ft 420 kts 99°
2026-05-01 14:21 42.09466 17.61816 25283 ft 415 kts 99°
2026-05-01 14:21 42.08879 17.65598 24662 ft 411 kts 99°
2026-05-01 14:21 42.08296 17.69344 24054 ft 407 kts 99°
2026-05-01 14:22 42.07141 17.76733 22738 ft 398 kts 99°
2026-05-01 14:22 42.06573 17.80354 22128 ft 393 kts 99°
2026-05-01 14:22 42.06019 17.83879 21535 ft 388 kts 99°
2026-05-01 14:22 42.05461 17.87417 20939 ft 384 kts 99°
2026-05-01 14:23 42.04908 17.90920 20343 ft 381 kts 99°
2026-05-01 14:23 42.04359 17.94395 19742 ft 377 kts 99°
2026-05-01 14:23 42.03813 17.97842 19162 ft 375 kts 99°
2026-05-01 14:23 42.03271 18.01255 18589 ft 372 kts 99°
2026-05-01 14:24 42.02730 18.04655 17949 ft 370 kts 99°
2026-05-01 14:24 42.02192 18.08025 17363 ft 366 kts 99°
2026-05-01 14:24 42.01660 18.11352 16795 ft 362 kts 99°
2026-05-01 14:24 42.01133 18.14645 16234 ft 358 kts 99°
2026-05-01 14:25 42.00611 18.17899 15670 ft 355 kts 99°
2026-05-01 14:25 42.00092 18.21130 15109 ft 352 kts 99°
2026-05-01 14:25 41.99577 18.24329 14563 ft 349 kts 99°
2026-05-01 14:25 41.99070 18.27474 14024 ft 346 kts 99°
2026-05-01 14:26 41.98560 18.30628 13433 ft 344 kts 99°
2026-05-01 14:26 41.97554 18.36833 12373 ft 335 kts 99°
2026-05-01 14:26 41.97059 18.39880 11839 ft 332 kts 99°
2026-05-01 14:27 41.96568 18.42898 11293 ft 330 kts 99°
2026-05-01 14:27 41.96079 18.45896 10862 ft 325 kts 99°
2026-05-01 14:27 41.95605 18.48792 10753 ft 312 kts 99°
2026-05-01 14:28 41.94690 18.54391 10472 ft 302 kts 99°
2026-05-01 14:28 41.94241 18.57129 10232 ft 295 kts 99°
2026-05-01 14:28 41.93812 18.59735 10094 ft 285 kts 99°
2026-05-01 14:28 41.93389 18.62294 9920 ft 276 kts 99°
2026-05-01 14:29 41.93148 18.64814 9588 ft 269 kts 82°
2026-05-01 14:29 41.93678 18.67171 9338 ft 260 kts 60°
2026-05-01 14:30 41.97331 18.72317 8443 ft 251 kts 43°
2026-05-01 14:30 41.98605 18.73913 8149 ft 249 kts 43°
2026-05-01 14:30 41.99866 18.75501 7858 ft 247 kts 43°
2026-05-01 14:31 42.02339 18.78640 7268 ft 244 kts 44°
2026-05-01 14:31 42.03569 18.80209 6983 ft 242 kts 44°
2026-05-01 14:31 42.04791 18.81770 6694 ft 241 kts 44°
2026-05-01 14:31 42.06003 18.83322 6390 ft 240 kts 44°
2026-05-01 14:32 42.07198 18.84852 6217 ft 233 kts 44°
2026-05-01 14:32 42.08343 18.86320 6101 ft 228 kts 44°
2026-05-01 14:32 42.09612 18.87616 5995 ft 231 kts 24°
2026-05-01 14:32 42.11180 18.87991 5772 ft 233 kts 359°
2026-05-01 14:33 42.12769 18.87587 5530 ft 231 kts 348°
2026-05-01 14:33 42.14273 18.87024 5235 ft 224 kts 347°
2026-05-01 14:33 42.15759 18.86453 4946 ft 218 kts 347°
2026-05-01 14:33 42.17184 18.85785 4669 ft 213 kts 342°
2026-05-01 14:34 42.18547 18.85066 4415 ft 206 kts 341°
2026-05-01 14:34 42.19859 18.84369 4179 ft 198 kts 342°
2026-05-01 14:34 42.21118 18.83707 3924 ft 192 kts 342°
2026-05-01 14:34 42.22333 18.83074 3701 ft 187 kts 342°
2026-05-01 14:35 42.23530 18.82454 3483 ft 182 kts 342°
2026-05-01 14:35 42.24699 18.81848 3260 ft 178 kts 342°
2026-05-01 14:35 42.25852 18.81252 3047 ft 175 kts 342°
2026-05-01 14:35 42.26986 18.80667 2829 ft 171 kts 342°
2026-05-01 14:36 42.28069 18.80108 2613 ft 161 kts 342°
2026-05-01 14:36 42.29101 18.79560 2429 ft 159 kts 341°
2026-05-01 14:36 42.30099 18.79109 2181 ft 148 kts 344°
2026-05-01 14:36 42.31027 18.78636 2000 ft 137 kts 337°
2026-05-01 14:37 42.31903 18.78165 1788 ft 134 kts 336°
2026-05-01 14:37 42.32771 18.77631 1772 ft 140 kts 329°
2026-05-01 14:37 42.33710 18.77124 1810 ft 147 kts 339°
2026-05-01 14:37 42.34665 18.76707 1501 ft 141 kts 339°
2026-05-01 14:38 42.35610 18.76286 1092 ft 141 kts 340°
2026-05-01 14:38 42.36502 18.75888 841 ft 133 kts 337°
2026-05-01 14:38 42.37347 18.75428 635 ft 133 kts 337°
2026-05-01 14:38 42.38175 18.74862 473 ft 136 kts 332°
2026-05-01 14:39 42.38947 18.74120 268 ft 136 kts 323°
2026-05-01 14:39 42.39651 18.73289 87 ft 133 kts 322°
2026-05-01 14:39 42.40306 18.72524 60 ft 106 kts 318°
2026-05-01 14:39 42.40690 18.72064 58 ft 42 kts 319°
2026-05-01 14:40 42.40842 18.71885 62 ft 25 kts 319°
2026-05-01 14:40 42.40933 18.71790 57 ft 8 kts 347°
2026-05-01 14:40 42.40976 18.71822 61 ft 6 kts 44°
2026-05-01 14:40 42.41010 18.71854 61 ft 7 kts 353°
2026-05-01 14:41 42.41052 18.71824 57 ft 7 kts 315°
2026-05-01 14:41 42.41077 18.71793 57 ft 5 kts 317°
2026-05-01 14:41 42.41104 18.71758 59 ft 6 kts 317°
2026-05-01 14:41 42.41136 18.71720 60 ft 6 kts 322°
2026-05-01 14:42 42.41172 18.71687 58 ft 6 kts 320°
2026-05-01 14:42 42.41202 18.71653 56 ft 4 kts 334°
2026-05-01 14:42 42.41224 18.71654 56 ft 2 kts 26°
2026-05-01 14:42 42.41225 18.71682 56 ft 0 kts 108°
2026-05-01 14:43 42.41221 18.71689 57 ft 1 kts 127°
2026-05-01 14:43 42.41215 18.71694 57 ft 2 kts 153°
2026-05-01 14:43 42.41213 18.71694 57 ft 0 kts 159°